Location: Bruneau Dunes Observatory
(42.9024°N, 115.6902°W)
Time: 07:50:22
(UTC-06:00)

Daily predictions for brighter satellites

Satellite Brightness Start Highest point End
(mag) Time Altitude Azimuth Time Altitude Azimuth Time Altitude Azimuth
NOSS 2-1 (D) 3.4 20:52:07 10° SSW 20:55:54 58° ESE 21:00:11 10° NE
NOSS 2-1 (C) 3.4 20:53:07 10° SSW 20:56:54 57° ESE 21:01:12 10° NE
Cosmos 1821 Rocket 4.0 20:52:27 10° S 20:58:27 62° E 21:04:28 10° NNE
Cosmos 2227 Rocket 2.6 21:02:57 10° NNW 21:08:26 47° ENE 21:13:51 10° SE
ALOS 2.3 21:07:33 10° SSE 21:12:13 88° E 21:16:56 10° NNW
NOSS 2-1 (E) 3.3 21:08:59 10° SSW 21:12:52 78° SE 21:17:23 10° NE
Helios 1B rocket 4.1 21:09:26 10° N 21:13:18 39° WNW 21:17:09 10° SW
Meteor 1-5 Rocket 4.1 21:10:03 10° S 21:15:17 65° E 21:20:41 10° NNE
FENGYUN 3A 3.7 21:10:32 10° SSE 21:15:53 90° E 21:21:17 10° NNW
Cosmos 1777 Rocket 4.2 21:14:18 10° NNW 21:19:33 78° WSW 21:24:48 10° SSE
Cosmos 2082 3.9 21:15:38 10° NNW 21:21:10 54° ENE 21:26:27 11° SE
Cosmos 2297 Rocket 2.7 21:18:51 10° NNW 21:24:17 45° ENE 21:28:59 13° SE
Lacrosse 5 3.3 21:22:14 10° NNW 21:26:34 27° NNE 21:30:48 10° E
H-2A R/B 3.3 21:26:32 15° ESE 21:28:48 23° ENE 21:32:02 10° NNE
Cosmos 2123 Rocket 3.9 21:22:38 10° N 21:28:51 79° E 21:35:02 10° S
Cosmos 1892 Rocket 4.1 21:25:25 10° NNW 21:29:52 65° W 21:34:18 10° S
Okean 2 3.7 21:26:26 10° NNW 21:30:37 72° W 21:34:44 10° S
Cosmos 2208 Rocket 4.0 21:26:24 10° SSW 21:31:40 74° ESE 21:37:04 10° NNE
Cosmos 1626 Rocket 3.9 21:27:32 10° N 21:31:48 46° ENE 21:35:31 13° SSE
SPOT 5 4.1 21:31:47 15° ESE 21:34:48 27° ENE 21:38:51 10° N
USA 215 4.3 21:29:51 10° E 21:35:37 35° NNE 21:41:25 10° NW
BREEZE-M TANK 3.7 21:20:40 10° WNW 21:35:51 83° NNE 21:38:58 17° E
Cosmos 1975 3.2 21:32:39 10° SSE 21:36:32 44° E 21:40:28 10° NNE
Cosmos 1455 Rocket 3.0 21:32:32 10° S 21:36:52 86° W 21:41:15 10° N
Cosmos 1602 Rocket 3.7 21:35:24 10° N 21:39:49 56° E 21:43:33 14° SSE
Cosmos 1743 4.4 21:41:34 17° E 21:41:36 17° E 21:44:11 10° NE
Tiangong 1 0.9 21:44:13 10° W 21:47:18 84° S 21:48:47 28° E
Lacrosse 5 rocket 1.2 21:43:39 10° NW 21:47:21 58° NE 21:49:06 27° ESE
YAOGAN 6 4.2 21:46:42 19° E 21:47:22 20° ENE 21:50:05 10° NNE
Cosmos 1461 2.7 21:43:37 10° NW 21:47:44 88° WSW 21:50:13 22° SSE
Resurs 01 Rocket 4.4 21:45:24 10° SW 21:48:21 17° W 21:51:19 10° NW
CZ-4 DEB 2.6 21:47:41 19° SSE 21:49:51 88° ENE 21:53:01 10° NNW
Cosmos 1570 Rocket 4.3 21:44:49 10° SSW 21:50:06 72° WNW 21:55:24 10° NNE
NOSS 7 (D) 4.3 21:47:42 10° SW 21:51:08 86° NW 21:54:32 10° NE
NOSS 3-4 (A) 4.1 21:44:36 10° NW 21:51:35 69° WSW 21:58:16 13° SSE
NOSS 3-4 (C) 4.1 21:44:43 10° NW 21:51:42 69° WSW 21:58:21 13° SSE
USA 186 3.4 21:48:55 10° SSW 21:51:46 32° W 21:54:30 10° NNW
H-2A R/B 4.0 21:50:51 10° ENE 21:52:08 11° ENE 21:53:36 10° NE
Cosmos 1066 Rocket 4.5 21:48:54 10° N 21:54:23 51° ENE 21:58:03 21° SE
OTV 4 1.7 21:52:30 10° WSW 21:55:04 27° S 21:55:25 26° S
Envisat 3.0 21:51:27 18° SSE 21:55:11 63° ENE 22:00:13 10° N
Cosmos 1153 Rocket 4.4 21:50:45 10° S 21:56:55 72° E 22:03:03 10° NNE
Cosmos 1937 Rocket 4.2 21:54:03 10° N 21:58:57 38° ENE 22:01:13 26° ESE
Meteor 1-12 Rocket 4.3 21:56:51 10° S 22:02:34 89° W 22:08:26 10° N
BREEZE-M DEB (TANK) 2.6 22:02:01 10° NW 22:04:08 40° NNE 22:05:25 27° ENE
Cosmos 1697 Rocket 3.0 21:59:30 10° S 22:04:48 43° ESE 22:10:07 10° NE
Cosmos 2278 4.0 21:59:09 10° SSW 22:04:48 73° WNW 22:10:32 10° NNE
Cosmos 2150 Rocket 4.1 22:00:20 10° NNW 22:05:25 55° ENE 22:07:47 30° SE
Cosmos 1939 Rocket 2.9 22:04:27 23° SSE 22:07:01 89° W 22:11:12 10° NNW
DELTA 2 R/B (1) 3.7 22:02:34 10° W 22:08:02 58° S 22:10:33 31° ESE
Cosmos 2084 3.8 22:04:45 10° NNW 22:08:41 48° NE 22:09:58 35° E
Cosmos 1802 Rocket 4.3 22:05:46 21° SSE 22:09:45 46° E 22:15:50 10° NNE
Cosmos 220 Rocket 3.9 22:06:06 10° NNW 22:10:21 85° WSW 22:12:20 31° SSE
SPOT 1/Viking Rocket 4.4 22:08:45 27° ESE 22:10:25 34° ENE 22:15:04 10° N
ASTEX 1 4.0 22:06:46 10° NNE 22:11:26 37° E 22:12:35 33° ESE
Iridium 4 Rocket 3.6 22:09:36 10° N 22:14:50 70° W 22:19:12 12° S
Cosmos 1606 Rocket 4.3 22:15:20 33° E 22:15:20 33° E 22:19:13 10° NNE
Cosmos 2369 4.1 22:12:10 10° SW 22:17:47 65° WNW 22:23:29 10° NNE
Terra 3.7 22:19:09 15° ENE 22:19:26 15° ENE 22:22:11 10° NNE
OAO 2 Rocket 4.2 22:17:19 10° SW 22:21:46 31° S 22:21:56 31° SSE
CZ-4B R/B 4.4 22:20:43 10° NE 22:23:57 27° ENE 22:23:57 27° ENE
Cosmos 1980 Rocket 2.6 22:25:46 38° SE 22:26:29 39° ESE 22:31:45 10° NE
Cosmos 2016 Rocket 4.0 22:28:04 33° SSE 22:30:35 55° E 22:36:36 10° NNE
ERS-1 Rocket 3.9 22:27:33 14° S 22:31:38 45° W 22:36:28 10° NNW
ARGOS 3.5 22:31:03 40° ESE 22:32:21 48° ENE 22:37:31 10° N
Cosmos 1898 Rocket 3.5 22:27:46 10° NNW 22:33:06 81° WSW 22:35:11 38° S
RESURS DK-1 2.4 22:30:54 10° NNW 22:35:00 59° ENE 22:35:13 58° ENE
Meteor 1-21 4.2 22:31:43 10° N 22:37:28 67° ENE 22:39:14 44° SE
SL-24 R/B - RUBIN 2 4.4 22:32:34 10° SSW 22:38:27 88° WNW 22:45:02 10° NE
Cosmos 1726 Rocket 3.9 22:40:21 48° ENE 22:40:21 48° ENE 22:44:07 10° NNE
Cosmos 2173 Rocket 4.0 22:38:28 17° S 22:43:34 87° W 22:49:58 10° N
BREEZE-M DEB (TANK) 4.3 22:39:48 10° WNW 22:43:53 75° NNE 22:49:31 30° ESE
Cosmos 1763 Rocket 3.7 22:44:50 46° E 22:44:50 46° E 22:49:10 10° NNE
CZ-3C R/B 4.4 22:29:04 10° WSW 22:46:07 19° SW 22:51:03 14° S
Cosmos 1500 4.4 22:44:14 20° SW 22:46:26 39° WNW 22:50:00 10° N
Cosmos 2061 Rocket 4.1 22:45:33 17° SSW 22:50:35 78° W 22:56:53 10° N
SL-19 R/B 4.0 22:45:09 10° NNE 22:50:42 70° ESE 22:51:50 54° SSE
Cosmos 1825 Rocket 3.6 22:47:32 10° NNW 22:51:59 73° W 22:52:33 63° SSW
Cosmos 2227 Rocket 3.9 22:47:34 10° NW 22:52:11 26° WSW 22:56:05 13° SSW
Cosmos 2100 Rocket 4.2 22:46:39 12° SSW 22:52:32 69° W 22:58:47 10° N
MetOp-B 4.2 22:51:33 42° S 22:53:21 71° WSW 22:58:43 10° NNW
Cosmos 468 Rocket 4.3 22:50:02 10° SSW 22:55:07 65° WNW 23:00:14 10° NNE
Cosmos 2263 Rocket 3.8 22:51:28 10° N 22:55:34 20° NE 22:56:22 20° ENE
Tsikada Rocket 4.1 22:49:53 10° N 22:56:14 59° E 22:57:24 51° ESE
USA 245 4.4 22:54:28 47° SSE 22:56:26 89° WSW 23:02:51 10° NNW
Cosmos 2322 Rocket 3.9 23:00:20 18° ENE 23:00:20 18° ENE 23:02:04 10° NE
Cosmos 1864 Rocket 4.4 22:57:09 54° SE 22:57:57 59° E 23:03:58 10° NNE
Cosmos 1953 Rocket 3.5 22:55:52 10° N 23:00:20 82° W 23:00:21 82° WSW
Cosmos 2360 4.5 23:01:41 50° E 23:01:41 50° E 23:06:30 10° NNE
Cosmos 967 Rocket 4.4 22:55:09 10° NNW 23:01:32 72° NE 23:02:46 57° ESE
Cosmos 1340 3.2 22:58:03 10° NNW 23:01:17 56° NW 23:01:17 56° NW
Cosmos 1814 Rocket 4.3 22:58:00 16° SSW 23:02:16 68° WNW 23:07:35 10° NNE
Cosmos 841 Rocket 3.6 23:04:42 60° ENE 23:04:42 60° ENE 23:09:17 10° NNE
H-2A R/B 3.4 23:03:40 27° SW 23:04:40 30° W 23:08:21 10° NW
Meteor 2-9 Rocket 4.0 23:06:35 68° E 23:06:38 68° E 23:12:03 10° NNE
Cosmos 2297 Rocket 3.8 23:03:23 10° NW 23:08:03 27° WSW 23:10:48 19° SW
Cosmos 2227 4.0 23:03:44 10° NNW 23:09:31 80° ENE 23:10:03 72° ESE
Lacrosse 5 1.8 23:04:57 10° NW 23:09:59 80° SW 23:09:59 80° SW
SPOT 5 4.0 23:11:03 30° SW 23:12:41 39° W 23:17:17 10° NNW
Cosmos 1743 4.2 23:16:41 32° W 23:17:10 33° WNW 23:20:45 10° N
USA 215 3.2 23:16:43 59° ESE 23:18:07 83° NE 23:24:42 10° NW
Cosmos 1758 Rocket 4.1 23:15:16 10° NNW 23:19:08 55° WNW 23:19:08 55° WNW
YAOGAN 6 4.5 23:21:11 27° W 23:21:11 27° W 23:24:00 10° NW
Tiangong 1 4.4 23:20:43 10° W 23:20:46 10° W 23:20:46 10° W
Cosmos 1816 Rocket 4.4 23:18:32 10° N 23:24:57 77° E 23:25:24 73° ESE
Lacrosse 5 rocket 3.8 23:23:59 10° W 23:24:50 13° W 23:24:50 13° W
Cosmos 1725 Rocket 3.9 23:26:55 62° SSW 23:28:01 81° W 23:34:18 10° N
Cosmos 2228 4.3 23:29:55 35° N 23:29:55 35° N 23:32:27 10° N
H-2A R/B 2.2 23:31:30 66° N 23:31:30 66° N 23:35:47 10° NNW
GEOS 3 Rocket 3.7 23:31:54 10° NNE 23:37:01 71° NW 23:37:09 70° WNW
Cosmos 2098 Rocket 4.4 23:36:06 39° SW 23:38:40 62° W 23:44:44 10° N
Cosmos 2058 Rocket 4.1 23:40:15 44° NW 23:40:15 44° NW 23:44:03 10° N
Landsat 7 4.5 23:42:11 53° NW 23:42:11 53° NW 23:46:02 10° NNW
Cosmos 1697 Rocket 4.4 23:43:57 10° WSW 23:48:54 30° NW 23:53:51 10° N
SL-16 R/B 3.2 23:53:37 38° NE 23:53:37 38° NE 23:57:06 10° NNE
